When you browse on this site, cookies collect data to enhance your experience and personalize the content and advertising you see.
Visit our Privacy Policy to learn more. By continuing to use the site, you agree to this use of cookies and data.
  • In Deutschland
  • Länderverzeichnis
  • Für 7 Tage
  • Wassertemperatur
  • Wetterkarte
  • Widgets
  • user-avatar
    Anmelden

    Stündliche Wetter Leipzig

    Heute, 20 August, Dienstag

    Zeit Temperatur Niederschläge Wind Luftdruck Luftfeuchtigkeit
    00:00 +19°C° 0 mm 1 m/S 754 mmHg 58%
    01:00 +19°C° 0 mm 1 m/S 754 mmHg 59%
    02:00 +19°C° 0 mm 1 m/S 754 mmHg 59%
    03:00 +19°C° 0 mm 1 m/S 754 mmHg 59%
    04:00 +19°C° 0 mm 1 m/S 755 mmHg 59%
    05:00 +19°C° 0 mm 1 m/S 755 mmHg 59%
    06:00 +19°C° 0 mm 1 m/S 755 mmHg 60%
    07:00 +20°C° 0 mm 1 m/S 755 mmHg 60%
    08:00 +21°C° 0 mm 1 m/S 755 mmHg 56%
    09:00 +20°C° 0 mm 0 m/S 755 mmHg 52%
    10:00 +22°C° 0 mm 0 m/S 755 mmHg 48%
    11:00 +24°C° 0 mm 1 m/S 755 mmHg 47%
    12:00 +24°C° 0 mm 1 m/S 755 mmHg 45%
    13:00 +25°C° 0 mm 1 m/S 755 mmHg 44%
    14:00 +24°C° 0 mm 2 m/S 756 mmHg 45%
    15:00 +24°C° 0 mm 2 m/S 756 mmHg 45%
    16:00 +24°C° 0 mm 2 m/S 756 mmHg 46%
    17:00 +23°C° 0 mm 2 m/S 756 mmHg 52%
    18:00 +21°C° 0 mm 2 m/S 756 mmHg 58%
    19:00 +19°C° 0 mm 2 m/S 756 mmHg 64%
    20:00 +19°C° 0.1 mm 2 m/S 756 mmHg 68%
    21:00 +18°C° 0.1 mm 3 m/S 757 mmHg 72%
    22:00 +17°C° 0.1 mm 3 m/S 757 mmHg 76%
    23:00 +17°C° 0.1 mm 2 m/S 757 mmHg 76%

    Morgen, 21 August, Mittwoch

    Zeit Temperatur Niederschläge Wind Luftdruck Luftfeuchtigkeit
    00:00 +17°C° 0.1 mm 2 m/S 758 mmHg 75%
    01:00 +17°C° 0.1 mm 2 m/S 758 mmHg 75%
    02:00 +16°C° 0 mm 2 m/S 758 mmHg 76%
    03:00 +16°C° 0 mm 2 m/S 758 mmHg 77%
    04:00 +15°C° 0 mm 2 m/S 758 mmHg 77%
    05:00 +16°C° 0 mm 2 m/S 759 mmHg 76%
    06:00 +16°C° 0 mm 2 m/S 759 mmHg 74%
    07:00 +16°C° 0 mm 1 m/S 759 mmHg 73%
    08:00 +19°C° 0 mm 1 m/S 759 mmHg 66%
    09:00 +21°C° 0 mm 1 m/S 760 mmHg 60%
    10:00 +22°C° 0 mm 1 m/S 760 mmHg 53%
    11:00 +23°C° 0 mm 1 m/S 759 mmHg 49%
    12:00 +24°C° 0 mm 1 m/S 759 mmHg 45%
    13:00 +25°C° 0 mm 1 m/S 759 mmHg 41%
    14:00 +25°C° 0 mm 1 m/S 759 mmHg 41%
    15:00 +24°C° 0 mm 1 m/S 759 mmHg 41%
    16:00 +24°C° 0 mm 1 m/S 759 mmHg 42%
    17:00 +23°C° 0 mm 1 m/S 759 mmHg 46%
    18:00 +22°C° 0 mm 1 m/S 759 mmHg 50%
    19:00 +20°C° 0 mm 2 m/S 759 mmHg 54%
    20:00 +19°C° 0 mm 2 m/S 759 mmHg 56%
    21:00 +18°C° 0 mm 2 m/S 759 mmHg 59%
    22:00 +17°C° 0 mm 2 m/S 759 mmHg 62%
    23:00 +17°C° 0 mm 2 m/S 759 mmHg 64%

    übermorgen, 22 August, Donnerstag

    Zeit Temperatur Niederschläge Wind Luftdruck Luftfeuchtigkeit
    00:00 +16°C° 0 mm 2 m/S 759 mmHg 65%
    01:00 +16°C° 0 mm 1 m/S 759 mmHg 67%
    02:00 +15°C° 0 mm 1 m/S 759 mmHg 69%
    03:00 +15°C° 0 mm 1 m/S 759 mmHg 71%
    04:00 +14°C° 0 mm 1 m/S 759 mmHg 73%
    05:00 +15°C° 0 mm 1 m/S 759 mmHg 70%
    06:00 +16°C° 0 mm 1 m/S 759 mmHg 68%
    07:00 +18°C° 0 mm 1 m/S 759 mmHg 65%
    08:00 +20°C° 0 mm 1 m/S 759 mmHg 59%
    09:00 +21°C° 0 mm 2 m/S 759 mmHg 52%
    10:00 +24°C° 0 mm 2 m/S 759 mmHg 45%
    11:00 +25°C° 0 mm 2 m/S 759 mmHg 42%
    12:00 +26°C° 0 mm 2 m/S 758 mmHg 38%
    13:00 +27°C° 0 mm 1 m/S 758 mmHg 35%
    14:00 +27°C° 0 mm 1 m/S 758 mmHg 34%
    15:00 +27°C° 0 mm 1 m/S 758 mmHg 33%
    16:00 +27°C° 0 mm 1 m/S 757 mmHg 32%
    17:00 +26°C° 0 mm 1 m/S 757 mmHg 37%
    18:00 +24°C° 0 mm 1 m/S 757 mmHg 42%
    19:00 +23°C° 0 mm 2 m/S 757 mmHg 47%
    20:00 +20°C° 0 mm 2 m/S 758 mmHg 50%
    21:00 +20°C° 0 mm 1 m/S 758 mmHg 53%
    22:00 +19°C° 0 mm 1 m/S 759 mmHg 56%
    23:00 +19°C° 0 mm 1 m/S 759 mmHg 60%

    23 August, Freitag

    Zeit Temperatur Niederschläge Wind Luftdruck Luftfeuchtigkeit
    00:00 +18°C° 0 mm 1 m/S 759 mmHg 64%
    01:00 +18°C° 0 mm 1 m/S 759 mmHg 68%
    02:00 +16°C° 0 mm 1 m/S 758 mmHg 70%
    03:00 +16°C° 0 mm 1 m/S 758 mmHg 73%
    04:00 +16°C° 0 mm 1 m/S 758 mmHg 75%
    05:00 +18°C° 0 mm 1 m/S 759 mmHg 72%
    06:00 +17°C° 0 mm 0 m/S 759 mmHg 69%
    07:00 +17°C° 0 mm 0 m/S 759 mmHg 67%
    08:00 +21°C° 0 mm 1 m/S 759 mmHg 60%
    09:00 +23°C° 0 mm 1 m/S 759 mmHg 53%
    10:00 +25°C° 0 mm 2 m/S 759 mmHg 46%
    11:00 +26°C° 0 mm 3 m/S 759 mmHg 42%
    12:00 +27°C° 0 mm 3 m/S 759 mmHg 38%
    13:00 +28°C° 0 mm 3 m/S 759 mmHg 34%
    14:00 +28°C° 0 mm 4 m/S 758 mmHg 35%
    15:00 +28°C° 0 mm 4 m/S 758 mmHg 36%
    16:00 +28°C° 0 mm 4 m/S 758 mmHg 37%
    17:00 +26°C° 0 mm 4 m/S 757 mmHg 43%
    18:00 +25°C° 0 mm 4 m/S 757 mmHg 49%
    19:00 +22°C° 0 mm 3 m/S 757 mmHg 55%
    20:00 +21°C° 0 mm 3 m/S 757 mmHg 60%
    21:00 +20°C° 0 mm 3 m/S 758 mmHg 64%
    22:00 +18°C° 0 mm 3 m/S 758 mmHg 69%
    23:00 +18°C° 0 mm 3 m/S 758 mmHg 72%

    24 August, Samstag

    Zeit Temperatur Niederschläge Wind Luftdruck Luftfeuchtigkeit
    00:00 +17°C° 0 mm 2 m/S 757 mmHg 75%
    01:00 +17°C° 0 mm 2 m/S 757 mmHg 77%
    02:00 +16°C° 0 mm 2 m/S 757 mmHg 79%
    03:00 +16°C° 0 mm 2 m/S 757 mmHg 80%
    04:00 +15°C° 0 mm 2 m/S 756 mmHg 82%
    05:00 +16°C° 0 mm 2 m/S 756 mmHg 79%
    06:00 +17°C° 0 mm 2 m/S 756 mmHg 76%
    07:00 +18°C° 0 mm 2 m/S 756 mmHg 74%
    08:00 +20°C° 0 mm 2 m/S 756 mmHg 67%
    09:00 +22°C° 0 mm 3 m/S 756 mmHg 59%
    10:00 +25°C° 0 mm 3 m/S 756 mmHg 52%
    11:00 +26°C° 0 mm 3 m/S 755 mmHg 48%
    12:00 +27°C° 0 mm 3 m/S 755 mmHg 44%
    13:00 +29°C° 0 mm 3 m/S 754 mmHg 40%
    14:00 +29°C° 0 mm 3 m/S 754 mmHg 40%
    15:00 +30°C° 0 mm 3 m/S 754 mmHg 41%
    16:00 +30°C° 0 mm 3 m/S 753 mmHg 41%
    17:00 +29°C° 0 mm 3 m/S 753 mmHg 48%
    18:00 +27°C° 0 mm 3 m/S 753 mmHg 55%
    19:00 +26°C° 0 mm 2 m/S 752 mmHg 62%
    20:00 +24°C° 0 mm 2 m/S 752 mmHg 67%
    21:00 +23°C° 0 mm 2 m/S 753 mmHg 72%
    22:00 +21°C° 0 mm 2 m/S 753 mmHg 77%
    23:00 +21°C° 0 mm 2 m/S 753 mmHg 80%

    25 August, Sonntag

    Zeit Temperatur Niederschläge Wind Luftdruck Luftfeuchtigkeit
    00:00 +21°C° 0 mm 1 m/S 752 mmHg 82%
    01:00 +21°C° 0 mm 1 m/S 752 mmHg 85%
    02:00 +21°C° 0 mm 1 m/S 752 mmHg 86%
    03:00 +21°C° 0 mm 1 m/S 752 mmHg 87%
    04:00 +20°C° 0 mm 1 m/S 752 mmHg 88%
    05:00 +21°C° 0 mm 1 m/S 752 mmHg 85%
    06:00 +22°C° 0 mm 1 m/S 752 mmHg 81%
    07:00 +23°C° 0 mm 1 m/S 752 mmHg 78%
    08:00 +25°C° 0 mm 1 m/S 752 mmHg 71%
    09:00 +27°C° 0 mm 1 m/S 752 mmHg 64%
    10:00 +28°C° 0 mm 2 m/S 752 mmHg 57%
    11:00 +30°C° 0 mm 2 m/S 752 mmHg 51%
    12:00 +31°C° 0 mm 2 m/S 751 mmHg 45%
    13:00 +32°C° 0 mm 2 m/S 751 mmHg 40%
    14:00 +32°C° 0 mm 2 m/S 751 mmHg 38%
    15:00 +33°C° 0 mm 3 m/S 751 mmHg 35%
    16:00 +34°C° 0 mm 3 m/S 750 mmHg 33%
    17:00 +31°C° 0 mm 2 m/S 750 mmHg 38%
    18:00 +29°C° 0 mm 2 m/S 750 mmHg 44%
    19:00 +27°C° 0 mm 1 m/S 750 mmHg 49%
    20:00 +26°C° 0 mm 1 m/S 750 mmHg 54%
    21:00 +24°C° 0 mm 1 m/S 750 mmHg 58%
    22:00 +23°C° 0 mm 1 m/S 751 mmHg 63%
    23:00 +23°C° 0 mm 1 m/S 750 mmHg 65%
    Mehr zeigen